Dewpoint
20 20 19 17 16 11 9 8 8 10 12 11 11 14 15 17 19 20 21 22 23 23 24 24 24 25 25 25 26 26 26 26 25 25 26 26 26 25 25 26 27 27 28
21 21 18 17 17 15 13 11 11 12 12 12 12 14 15 16 17 18 19 19 20 21 23 24 24 24 24 25 25 25 25 25 24 24 24 24 25 25 25 26 25 25 26
24 20 18 16 15 16 15 13 14 14 14 12 13 14 15 16 16 17 17 18 18 19 20 21 22 22 23 24 25 25 25 25 24 24 24 25 25 26 26 26 27 27 27
23 20 18 15 15 15 15 13 15 15 15 14 14 15 16 16 16 16 16 18 19 19 20 21 22 22 22 23 23 24 24 24 24 25 25 25 25 26 26 26 27 27 28
23 21 19 17 16 16 14 13 15 14 16 16 17 18 17 17 15 15 18 19 20 20 20 20 21 22 24 24 24 25 25 26 26 26 26 26 27 26 26 27 27 27 28
22 22 20 18 14 11 11 13 14 14 15 16 18 18 18 17 16 20 21 20 20 19 20 20 20 21 23 24 25 25 26 25 26 25 26 26 26 27 28 28 28 27 26
21 21 20 17 12 10 11 12 10 12 15 17 18 18 18 17 18 20 20 19 18 18 18 18 18 18 20 20 22 23 24 25 26 27 27 26 26 27 27 27 28 28 27
19 20 19 17 13 12 11 9 11 13 14 18 18 18 18 18 18 19 19 18 18 18 18 19 19 19 20 21 22 24 25 26 26 26 26 26 26 26 26 26 27 27 28
20 19 19 17 14 12 10 10 12 13 17 18 18 18 17 18 18 18 18 19 18 19 19 19 19 20 22 22 23 24 24 24 23 24 25 25 26 26 26 27 28 28 26
20 20 19 17 14 11 11 13 13 13 18 17 18 19 18 18 17 18 19 20 20 19 18 18 19 19 21 22 24 26 24 23 22 21 22 23 24 25 25 25 26 26 26
21 20 18 16 15 13 12 14 13 14 17 16 16 19 18 19 18 18 18 20 19 19 19 18 18 19 21 22 21 21 21 21 23 22 21 20 22 23 25 27 26 26 26
21 20 17 15 14 12 13 13 13 15 16 14 16 17 18 18 18 18 17 16 16 17 17 17 19 19 20 19 19 19 20 19 18 19 19 19 21 21 29 32 30 29 28
21 20 18 14 11 9 11 11 10 14 14 13 13 14 15 16 16 18 16 15 15 15 16 15 17 17 17 16 17 17 17 16 16 17 17 17 18 20 22 27 32 31 29
21 20 18 14 10 6 7 9 7 10 12 11 12 14 14 14 14 17 16 16 16 16 14 14 14 14 14 15 15 15 16 16 16 15 15 16 17 18 19 22 31 30 29
19 20 18 14 12 5 4 4 5 10 10 9 13 14 14 12 14 14 14 14 14 14 12 12 12 11 11 11 12 13 15 16 16 17 16 15 16 16 16 19 22 30 29
17 18 18 13 9 6 6 4 9 8 11 13 16 15 13 13 14 13 12 12 11 11 9 9 9 10 10 11 11 12 12 14 15 16 15 15 15 16 15 17 18 22 27
17 18 18 16 14 11 5 1 6 10 11 15 15 13 14 12 12 10 9 8 9 6 6 7 8 9 10 11 11 12 12 13 15 14 14 15 15 15 15 15 16 17 20
17 19 19 18 11 7 2 2 6 12 14 12 14 11 13 12 11 9 7 1 2 5 7 8 9 10 11 11 12 12 12 13 14 12 13 14 14 14 14 14 15 16 17
17 18 20 18 9 7 3 3 8 9 7 6 10 9 11 11 10 9 5 2 4 5 7 8 10 10 11 11 12 12 12 13 13 11 12 13 13 14 13 13 14 15 17
18 19 18 16 14 8 11 12 9 7 7 7 8 1 7 7 2 2 3 2 3 4 6 7 9 10 11 12 12 13 12 12 13 12 11 12 12 13 13 13 13 14 15
19 20 18 18 18 16 15 14 11 9 9 9 9 5 4 3 4 4 4 4 4 4 5 6 7 9 11 12 12 12 12 12 12 12 12 11 12 12 13 13 14 14 15
18 20 18 17 17 16 15 14 13 11 9 9 11 9 10 7 8 8 9 9 10 10 8 6 7 7 9 10 12 12 13 14 12 12 12 11 11 12 11 12 12 13 13
17 17 17 16 16 16 15 14 13 12 8 7 10 10 9 9 8 9 9 10 11 11 11 10 9 8 8 9 10 13 14 16 13 13 13 12 10 11 11 11 11 12 12
16 16 15 15 16 14 13 12 12 12 7 5 6 7 9 8 8 8 9 9 9 10 10 11 11 10 9 8 9 11 15 18 12 12 13 13 11 11 11 11 11 12 12
15 15 15 15 16 13 13 12 12 12 8 5 7 9 9 9 8 9 10 10 10 10 10 10 11 11 10 8 8 8 14 13 10 9 13 13 12 10 11 11 10 11 11
13 14 14 14 14 14 12 11 11 10 9 7 8 9 9 9 8 9 10 10 10 10 10 10 10 10 9 9 8 12 19 14 9 6 10 13 13 9 11 11 10 10 10
Wind_Speed
9 8 7 7 6 5 4 3 3 2 2 3 4 4 4 4 4 5 5 6 7 7 7 8 9 9 8 8 8 10 12 13 20 20 17 17 19 20 21 21 20 20 21
8 8 9 7 6 6 5 4 3 3 3 3 4 4 5 5 5 6 7 7 8 9 9 10 10 9 11 11 11 13 14 15 18 25 20 20 21 20 21 22 22 21 22
10 11 10 10 9 9 7 5 4 3 3 4 4 5 6 6 7 7 8 9 9 10 11 12 12 13 14 13 14 14 15 16 19 22 22 19 20 19 22 21 22 22 23
10 12 13 13 12 10 8 6 5 4 4 4 4 6 6 7 8 8 8 9 10 11 12 13 14 15 16 16 16 17 17 19 20 22 22 21 20 18 19 22 23 20 22
10 13 15 13 11 9 8 7 6 6 5 5 5 5 6 7 8 7 10 11 12 13 13 15 16 17 18 20 17 18 19 19 20 21 24 22 21 20 21 20 22 22 23
11 14 13 13 13 12 10 9 8 8 6 5 5 5 6 7 8 11 12 13 13 14 15 15 15 17 19 22 25 27 26 24 25 25 26 27 25 23 21 21 23 23 28
10 11 12 13 15 15 12 10 11 9 6 6 5 5 6 7 9 11 12 13 13 14 15 15 15 15 17 19 22 25 26 30 32 29 33 31 31 24 24 26 25 26 30
10 10 12 14 16 14 13 13 10 7 8 6 5 5 6 7 9 11 13 13 12 13 14 15 17 18 18 19 20 22 23 23 25 25 29 30 31 27 28 27 29 31 33
12 12 13 15 16 15 16 15 11 9 9 8 6 6 6 8 9 11 12 12 12 13 15 16 16 17 19 21 20 21 23 24 25 32 36 39 41 42 38 31 32 29 38
14 14 12 14 17 18 18 15 11 9 10 7 7 6 6 7 9 10 12 10 12 13 15 14 15 16 18 20 19 20 22 24 24 28 28 30 33 32 37 35 31 34 34
16 14 12 14 17 18 15 13 12 11 9 7 7 6 6 6 8 10 11 10 10 13 13 15 13 15 18 20 20 18 20 24 26 26 27 26 27 27 26 26 30 32 34
16 15 14 15 15 15 16 14 11 11 10 9 7 7 5 5 7 8 10 10 11 11 13 14 14 17 17 17 16 18 22 22 18 19 22 24 25 26 25 22 27 30 32
16 16 16 15 16 16 18 16 13 13 12 10 8 7 6 5 6 7 8 10 8 10 8 12 13 14 14 12 15 18 18 15 17 19 21 23 24 26 28 29 25 27 31
16 15 15 15 16 17 16 16 15 14 13 11 9 8 6 5 5 5 5 6 7 7 7 7 9 10 11 12 13 14 14 15 18 20 21 22 23 24 25 23 25 22 24
17 15 14 14 17 17 17 17 17 14 14 12 10 7 6 5 5 6 6 5 6 5 4 6 9 11 12 13 14 14 15 15 17 18 20 21 22 23 23 22 20 23 24
17 15 14 15 16 16 16 13 14 13 16 14 10 7 6 5 5 4 3 3 5 5 4 7 9 10 12 14 15 16 16 19 19 20 20 20 22 22 22 22 20 22 25
17 16 13 16 15 17 17 16 15 14 14 11 9 7 4 2 0 1 3 3 7 5 7 7 8 9 11 13 14 15 17 18 20 19 20 22 23 22 26 23 22 22 23
16 18 14 15 16 16 16 15 14 15 15 11 6 6 6 5 4 3 3 2 4 7 6 7 7 9 11 12 14 15 16 18 20 21 21 21 22 23 24 23 22 23 23
14 13 13 13 15 16 15 14 14 14 12 11 9 5 7 8 6 4 5 4 4 5 5 6 7 9 10 12 14 15 16 17 21 21 22 22 23 23 24 24 24 29 28
9 12 12 12 14 15 14 14 14 14 12 11 10 9 9 8 5 3 2 2 3 3 5 6 7 8 10 12 15 16 16 17 20 21 23 22 22 23 24 25 24 24 23
6 8 14 12 13 14 14 14 14 13 11 10 9 9 11 9 6 4 2 0 2 4 5 6 8 8 10 12 14 16 15 16 19 20 21 22 21 22 25 24 25 24 24
5 5 11 10 11 12 13 13 13 12 11 10 8 10 11 6 5 4 2 1 3 4 5 6 8 8 10 11 13 15 16 15 20 19 20 21 22 22 23 26 27 27 26
1 5 10 9 9 13 12 11 11 11 10 10 10 9 8 6 5 3 2 2 3 4 5 6 8 9 10 11 11 12 15 15 18 18 18 19 21 22 23 22 24 26 29
3 3 7 8 8 11 11 10 9 10 9 9 10 9 8 6 5 3 2 3 5 6 6 6 7 10 11 12 12 13 16 12 16 15 17 17 20 21 22 22 24 25 24
6 2 4 6 7 10 12 10 10 9 8 8 8 8 7 5 3 2 3 4 5 7 8 8 8 9 11 15 16 18 23 18 21 17 15 16 19 22 21 19 24 22 25
6 4 2 4 6 8 10 10 9 8 8 8 7 7 6 5 3 4 4 5 6 7 8 7 8 10 12 13 15 19 24 15 20 21 14 15 17 20 19 20 23 20 21
Wind_Direction
206 201 200 197 197 200 215 220 236 266 293 301 311 312 314 313 309 300 290 280 275 275 271 270 268 269 266 262 257 256 253 252 263 277 280 288 291 292 294 294 293 292 291
218 212 214 207 204 215 221 220 231 247 269 291 302 304 309 307 304 295 290 288 282 278 273 267 267 266 264 260 259 261 263 264 268 277 281 286 286 289 288 287 287 284 281
220 217 215 212 210 218 222 221 229 249 268 283 292 303 308 308 303 295 287 283 277 274 272 268 269 269 265 263 265 267 268 268 269 273 279 282 284 287 288 284 280 279 277
221 219 220 215 213 214 213 214 223 237 255 271 286 297 301 304 299 292 286 284 279 275 274 269 266 265 266 267 268 268 271 272 273 275 279 279 277 280 280 284 284 278 278
226 222 223 219 211 208 207 208 218 230 237 246 268 281 294 295 285 295 294 286 280 277 272 268 265 264 266 267 268 268 268 269 270 273 275 277 274 274 270 277 279 285 279
239 231 218 208 204 209 208 208 216 225 224 233 248 264 281 284 291 292 287 283 278 276 276 275 276 273 268 268 268 270 270 273 272 273 275 273 273 272 273 272 276 278 280
251 240 220 209 207 208 203 201 216 219 212 225 239 247 274 288 293 293 292 284 281 277 276 278 279 276 277 277 277 275 274 272 269 272 273 271 276 275 278 276 269 267 267
257 237 221 211 210 203 200 208 212 212 216 222 232 246 273 286 301 302 301 288 281 278 278 280 279 282 281 284 286 282 276 272 269 267 266 273 274 276 273 275 277 277 274
255 247 228 211 206 198 202 206 204 205 207 212 222 245 261 285 304 310 301 293 286 291 287 284 284 285 285 289 289 286 284 279 279 278 278 278 278 276 272 273 266 266 269
257 249 232 212 207 205 204 198 196 201 206 208 236 243 262 285 305 309 302 293 297 296 293 289 291 292 294 293 292 290 290 291 297 296 289 285 281 273 268 261 259 255 261
272 259 232 219 213 207 198 193 194 194 201 214 239 254 265 279 300 305 302 310 306 301 303 300 299 297 300 303 306 303 299 301 300 297 295 294 288 283 272 254 244 243 249
276 260 239 221 215 203 193 192 193 192 200 215 227 251 260 278 290 303 306 318 315 314 304 300 299 304 313 315 318 313 316 315 307 299 299 297 296 293 299 258 242 241 241
278 260 246 225 213 202 193 188 189 192 204 214 228 247 271 290 296 306 314 327 322 323 309 312 309 317 323 327 328 329 330 326 317 310 307 304 301 299 296 290 261 243 245
274 260 244 225 212 202 198 191 193 194 201 213 224 235 257 282 297 308 329 318 328 327 342 341 341 342 342 340 339 336 327 328 324 319 313 305 304 305 300 292 284 244 243
270 257 237 227 214 201 200 194 197 200 199 206 215 222 239 261 289 334 341 322 352 347 4 1 8 5 358 353 345 339 331 332 327 318 317 316 316 310 303 306 294 292 246
266 249 232 220 212 199 196 190 198 195 198 205 207 213 217 254 308 343 350 350 10 22 42 24 13 4 358 351 347 340 340 329 329 327 325 323 319 310 317 321 315 296 294
261 248 229 217 208 200 193 186 178 191 197 189 201 205 214 181 83 40 78 69 43 46 46 27 14 3 351 345 344 343 335 320 324 332 332 326 313 325 335 326 322 308 298
261 245 223 212 203 193 187 180 178 177 178 181 186 189 183 168 146 94 76 89 48 40 36 24 11 359 349 342 340 339 333 330 336 339 333 323 331 337 328 321 317 309 302
255 232 210 204 194 186 176 172 177 184 186 179 169 164 181 163 142 88 64 69 38 26 13 11 2 355 345 341 338 339 335 336 340 339 334 336 339 332 322 321 319 320 316
247 219 185 177 187 174 168 174 179 179 175 175 182 179 175 166 177 151 103 45 15 359 352 345 347 343 339 340 341 342 340 337 344 343 338 336 334 330 326 323 322 321 321
260 210 175 174 176 168 165 170 173 170 170 171 174 177 178 174 168 168 170 291 323 321 328 330 333 332 330 338 342 341 339 339 346 340 338 335 332 333 332 329 329 332 330
292 271 147 163 156 157 161 161 163 169 168 166 163 171 160 159 163 168 183 262 299 298 301 306 314 321 321 326 333 334 328 331 353 345 338 334 335 336 339 335 336 338 339
337 145 138 144 149 160 153 153 156 165 168 169 165 160 170 166 168 179 214 280 292 297 304 301 304 311 319 323 323 326 326 323 350 345 339 336 339 339 342 337 339 342 344
10 115 132 142 147 133 145 149 155 164 166 169 174 177 176 171 173 196 262 285 289 289 293 299 299 300 309 315 321 323 327 323 359 348 340 337 343 342 344 343 344 345 349
13 66 129 149 157 144 153 151 156 159 169 176 175 174 173 175 193 234 267 282 289 290 288 293 298 304 306 314 317 322 321 2 9 5 344 343 346 347 352 350 348 349 355
13 27 92 120 137 143 145 150 151 157 171 179 180 180 179 189 219 250 261 270 280 286 283 285 290 297 301 304 311 317 334 13 10 8 359 348 350 358 359 355 354 355 360